Simultaneous Nadir Overpasses (SNOs) Predictions

Prediction of SNOs between AQUA and NOAA-19 Satellite Orbit:

Table of predicted SNOs for the next 14.0 days since TLE Epoch: 10/3/2015
Index Date (AQUA) Time (AQUA) Lat,Lon (AQUA) SZA (AQUA ) Date (NOAA-19) Time (NOAA-19) Lat,Lon (NOAA-19) SZA (NOAA-19 ) Distance(km) Time Diff (sec)
1 10/03/2015 22:08:50 -80.48, -7.15 94.00 10/03/2015 22:07:40 -80.48, -7.15 93.97 0.15 70
2 10/03/2015 22:58:15 80.42, 161.10 85.91 10/03/2015 22:58:42 80.42, 161.12 85.90 0.56 27
3 10/06/2015 03:42:33 80.48, 89.47 86.84 10/06/2015 03:42:00 80.48, 89.31 86.87 3.07 33
4 10/06/2015 04:31:57 -80.41,-102.20 93.27 10/06/2015 04:32:53 -80.40,-102.10 93.31 2.14 56
5 10/08/2015 09:16:15 -80.44,-173.59 92.39 10/08/2015 09:16:11 -80.46,-173.73 92.37 2.90 4
6 10/10/2015 14:00:33 -80.48, 114.92 91.50 10/10/2015 13:59:28 -80.49, 114.93 91.48 0.64 65
7 10/10/2015 14:49:58 80.43, -76.86 88.42 10/10/2015 14:50:31 80.43, -76.82 88.40 0.84 33
8 10/12/2015 19:34:16 80.48,-148.45 89.32 10/12/2015 19:33:49 80.48,-148.46 89.33 0.36 27
9 10/12/2015 20:23:41 -80.44, 19.58 90.74 10/12/2015 20:24:43 -80.44, 19.53 90.76 0.96 62




NCC Satellite Simultaneous Nadir Overpasses (SNOs) Prediction Service
